Simultaneous Nadir Overpasses (SNOs) Predictions

Prediction of SNOs between GOES-16 and METOP-B Satellite Orbit:

Table of predicted SNOs for the next 14.0 days since TLE Epoch: 5/5/2017
Index Date Time (GOES-16) GOES-16 Lat,Lon METOP-B Lat,Lon Distance(km) Time Diff (sec)
1 05/06/2017 03:46:48 0.01, -89.49 -0.87, -93.41 447.40 80
2 05/07/2017 03:23:29 0.01, -89.49 0.25, -88.42 121.89 80
3 05/08/2017 15:42:20 -0.01, -89.52 0.77, -92.98 395.31 80
4 05/09/2017 15:24:21 -0.01, -89.52 -0.35, -87.99 174.51 80
5 05/11/2017 03:43:21 0.01, -89.52 -0.66, -92.59 349.95 80
6 05/12/2017 03:20:01 0.01, -89.52 0.46, -87.60 219.74 80
7 05/13/2017 15:38:53 -0.00, -89.55 0.57, -92.16 297.40 80
8 05/14/2017 15:20:53 0.00, -89.56 -0.54, -87.17 272.67 80
9 05/16/2017 03:39:53 -0.01, -89.56 -0.52, -91.76 251.16 80
10 05/17/2017 03:16:33 -0.01, -89.57 0.59, -86.76 318.69 80
11 05/18/2017 15:35:25 0.01, -89.59 0.40, -91.33 198.53 80




NCC Satellite Simultaneous Nadir Overpasses (SNOs) Prediction Service
